[[{"header":{"parameterUnit":"m.s-1","parameterCategory":1,"la1":30.2991,"la2":30.254,"lo1":-89.0895,"lo2":-89.0444,"dy":0.0017,"dx":0.0017,"nx":28,"ny":28,"refTime":"2024-08-15T21:00:00:Z","depth":0,"parameterNumber":2,"parameterNumberName":"U-component_of_WINDS"},"data":[0,0,0,0,0,0,0,0,0,0,0,0,0,0,0,0,0,0,0,0,0,0,0,0,0,0,0,0,0,0,0,0,0,0,0,0,0,0,0,0,0,0,0,0,0,0,0,0,0,0,0,0,0,0,0,0,0,0,-0.1138,-0.1139,0,-0.1234,-0.1235,-0.1237,-0.1301,-0.1301,-0.1302,-0.1302,-0.14,-0.1402,-0.1405,0,0,0,0,0,0,0,0,0,0,0,0,0,-0.1012,-0.1014,-0.1138,-0.1139,-0.1141,-0.1234,-0.1235,-0.1237,-0.1301,-0.1301,-0.1302,-0.1302,-0.14,-0.1402,-0.1405,0,0,0,0,0,0,0,0,0,0,0,0,0,-0.1083,-0.1014,-0.1138,-0.1184,-0.1189,-0.1234,-0.1236,-0.1237,-0.13,-0.1301,-0.1302,-0.1302,-0.1399,-0.1402,-0.1405,-0.1412,0,0,-0.1415,-0.1417,0,0,0,0,0,0,0,0,-0.1079,-0.1088,-0.1176,-0.1181,-0.1186,-0.1256,-0.1227,-0.1296,-0.13,-0.1258,-0.1302,-0.1303,-0.1352,-0.1359,-0.1376,-0.1417,-0.1421,-0.1416,-0.1418,-0.1419,-0.142,0,0,0,0,0,0,0,-0.1074,-0.1084,-0.1176,-0.1177,-0.1184,-0.12,-0.1211,-0.124,-0.13,-0.1262,-0.1267,-0.1277,-0.1355,-0.1372,-0.1378,-0.1423,-0.1416,-0.1418,-0.1421,-0.1422,-0.1478,-0.1477,0,0,0,0,0,0,-0.1062,-0.1079,-0.1173,-0.1179,-0.1133,-0.1202,-0.1214,-0.1233,-0.13,-0.1311,-0.1277,-0.128,-0.1366,-0.1374,-0.1382,-0.1397,-0.1419,-0.1422,-0.1424,-0.1478,-0.1478,-0.1477,0,0,0,0,0,0,-0.1059,-0.1069,-0.1169,-0.1131,-0.1145,-0.1203,-0.1224,-0.1235,-0.1252,-0.1311,-0.1322,-0.1283,-0.1367,-0.1377,-0.1405,-0.1401,-0.1424,-0.1427,-0.1479,-0.1478,-0.1477,-0.1425,0,0,0,0,0,0,-0.1055,-0.1068,-0.1071,-0.113,-0.1146,-0.119,-0.1224,-0.1236,-0.1258,-0.1263,-0.132,-0.133,-0.1368,-0.14,-0.1408,-0.1406,-0.1429,-0.1479,-0.1478,-0.1478,-0.1427,-0.1422,-0.1418,0,0,0,0,0,-0.105,-0.1052,-0.1071,-0.1082,-0.1151,-0.119,-0.1199,-0.1243,-0.1257,-0.1261,-0.1299,-0.1329,-0.14,-0.1402,-0.1412,-0.1411,-0.148,-0.1479,-0.1478,-0.1429,-0.1423,-0.1418,0,0,0,0,0,0,-0.0989,-0.106,-0.1082,-0.1103,-0.114,-0.12,-0.1206,-0.1235,-0.1268,-0.1272,-0.1325,-0.1337,-0.136,-0.1388,-0.1389,-0.1423,-0.1444,-0.1444,-0.1403,-0.1398,-0.1394,-0.1387,-0.1432,0,0,0,0,0,-0.0979,-0.1004,-0.1064,-0.1077,-0.1094,-0.1147,-0.1165,-0.1196,-0.1236,-0.1252,-0.1292,-0.1331,-0.1362,-0.1382,-0.1414,-0.1432,-0.1446,-0.1436,-0.1431,-0.1427,-0.1428,-0.1441,-0.1438,-0.1473,-0.1473,-0.1473,0,0,-0.0956,-0.0998,-0.101,-0.1065,-0.1098,-0.1123,-0.1159,-0.1184,-0.1204,-0.1256,-0.1285,-0.1316,-0.1363,-0.1386,-0.1398,-0.141,-0.1421,-0.1426,-0.1422,-0.1425,-0.144,-0.1437,-0.1433,-0.1473,-0.1473,-0.1473,0,0,-0.0929,-0.0962,-0.0977,-0.1009,-0.1058,-0.1094,-0.1097,-0.1154,-0.1177,-0.1207,-0.1247,-0.1271,-0.1324,-0.1356,-0.1379,-0.1366,-0.1395,-0.1375,-0.1352,-0.1365,-0.1362,-0.136,-0.1357,-0.1355,-0.1375,-0.1375,-0.1375,0,-0.0895,-0.0934,-0.0981,-0.1005,-0.1028,-0.1077,-0.1094,-0.1123,-0.1179,-0.1195,-0.1208,-0.1276,-0.131,-0.1343,-0.134,-0.1357,-0.1364,-0.1369,-0.1358,-0.1357,-0.1355,-0.1353,-0.1352,-0.1372,-0.1373,-0.1373,-0.1373,0,-0.0891,-0.0918,-0.0925,-0.0979,-0.1003,-0.1023,-0.1074,-0.1093,-0.1122,-0.1156,-0.1188,-0.1231,-0.1274,-0.1284,-0.1312,-0.1321,-0.1327,-0.1348,-0.1371,-0.1349,-0.1347,-0.1347,-0.1368,-0.1369,-0.137,-0.1371,0,0,-0.0827,-0.0908,-0.091,-0.0936,-0.0995,-0.1017,-0.1039,-0.1082,-0.1098,-0.1136,-0.1157,-0.1201,-0.1222,-0.1248,-0.1281,-0.1292,-0.1281,-0.1312,-0.1314,-0.1306,-0.1296,-0.128,-0.1278,-0.1301,-0.1301,-0.1301,-0.1292,0,-0.0809,-0.0852,-0.0896,-0.0924,-0.0951,-0.0998,-0.1019,-0.1057,-0.109,-0.1118,-0.1155,-0.1186,-0.121,-0.1227,-0.124,-0.1279,-0.128,-0.128,-0.1322,-0.1323,-0.1309,-0.1277,-0.126,-0.125,-0.1292,-0.1292,-0.1292,0,-0.0794,-0.0831,-0.0861,-0.0919,-0.0932,-0.0949,-0.0992,-0.1018,-0.1064,-0.1087,-0.1117,-0.1152,-0.118,-0.1199,-0.1238,-0.1238,-0.1257,-0.128,-0.128,-0.1286,-0.1306,-0.1283,-0.1248,-0.1247,-0.1291,-0.1291,-0.1291,0,-0.0746,-0.0803,-0.0829,-0.085,-0.0918,-0.0929,-0.0958,-0.1004,-0.1027,-0.1065,-0.1081,-0.1121,-0.1144,-0.1175,-0.122,-0.1229,-0.1255,-0.1277,-0.1276,-0.1275,-0.128,-0.1279,-0.1248,-0.1291,-0.1291,-0.1291,-0.1291,0,-0.0722,-0.0739,-0.0809,-0.0825,-0.0846,-0.0897,-0.0917,-0.095,-0.0991,-0.1015,-0.1059,-0.1081,-0.1139,-0.1168,-0.1204,-0.1232,-0.1241,-0.1262,-0.1272,-0.1259,-0.1256,-0.1273,-0.1275,-0.1291,-0.1291,-0.1291,-0.1291,0,-0.0672,-0.0719,-0.0751,-0.0813,-0.083,-0.0843,-0.0896,-0.0914,-0.0951,-0.0981,-0.0991,-0.1048,-0.1085,-0.1133,-0.1185,-0.1209,-0.1233,-0.1247,-0.1218,-0.1224,-0.1221,-0.1221,-0.12,-0.12,-0.1241,-0.1241,-0.124,0,-0.0654,-0.0669,-0.0733,-0.0752,-0.078,-0.0811,-0.0835,-0.0886,-0.091,-0.0964,-0.0976,-0.1016,-0.1051,-0.1108,-0.1154,-0.1195,-0.1211,-0.1201,-0.1217,-0.1204,-0.1212,-0.1211,-0.1214,-0.1197,-0.1196,-0.1195,-0.1195,0,-0.0618,-0.0641,-0.0674,-0.0716,-0.0744,-0.078,-0.0817,-0.0831,-0.089,-0.0915,-0.0953,-0.098,-0.1034,-0.1074,-0.1121,-0.1152,-0.1184,-0.1189,-0.1192,-0.1179,-0.1162,-0.1173,-0.1208,-0.119,-0.119,-0.1191,-0.1191,-0.1191,-0.0584,-0.06,-0.0648,-0.0685,-0.0718,-0.0753,-0.0774,-0.0813,-0.0846,-0.0894,-0.0922,-0.096,-0.1007,-0.1074,-0.1103,-0.1134,-0.1146,-0.1149,-0.115,-0.115,-0.1146,-0.1156,-0.1142,-0.1143,-0.1143,-0.1143,-0.1143,0,-0.0551,-0.0585,-0.0618,-0.0669,-0.0698,-0.0726,-0.077,-0.0792,-0.0825,-0.0866,-0.09,-0.0946,-0.0985,-0.1035,-0.1078,-0.1094,-0.111,-0.1103,-0.1103,-0.111,-0.1132,-0.1127,-0.109,-0.109,-0.109,-0.109,-0.109,-0.109,-0.0537,-0.0566,-0.0595,-0.0642,-0.0676,-0.0714,-0.0737,-0.0769,-0.0803,-0.0851,-0.0885,-0.0917,-0.0963,-0.101,-0.1048,-0.1062,-0.1076,-0.1066,-0.1084,-0.1104,-0.1108,-0.1113,-0.1108,-0.1068,-0.1068,-0.106,-0.106,-0.1059]},{"header":{"parameterUnit":"m.s-1","parameterCategory":1,"la1":30.2991,"la2":30.254,"lo1":-89.0895,"lo2":-89.0444,"dy":0.0017,"dx":0.0017,"nx":28,"ny":28,"refTime":"2024-08-15T21:00:00:Z","depth":0,"parameterNumber":3,"parameterNumberName":"V-component_of_WINDS"},"data":[0,0,0,0,0,0,0,0,0,0,0,0,0,0,0,0,0,0,0,0,0,0,0,0,0,0,0,0,0,0,0,0,0,0,0,0,0,0,0,0,0,0,0,0,0,0,0,0,0,0,0,0,0,0,0,0,0,0,2.8041,2.804,0,2.8005,2.8005,2.8004,2.7968,2.7967,2.7967,2.7966,2.7928,2.7928,2.7927,0,0,0,0,0,0,0,0,0,0,0,0,0,2.8075,2.8075,2.8041,2.804,2.804,2.8005,2.8005,2.8004,2.7968,2.7967,2.7966,2.7966,2.7929,2.7928,2.7927,0,0,0,0,0,0,0,0,0,0,0,0,0,2.8052,2.8075,2.8041,2.8017,2.8015,2.8005,2.8005,2.8004,2.7968,2.7967,2.7966,2.7966,2.7929,2.7928,2.7927,2.7937,0,0,2.7925,2.7924,0,0,0,0,0,0,0,0,2.8053,2.8051,2.8021,2.8019,2.8016,2.799,2.8003,2.7982,2.7968,2.7986,2.7966,2.7965,2.7949,2.7947,2.7942,2.7935,2.7934,2.7925,2.7924,2.7924,2.7924,0,0,0,0,0,0,0,2.8055,2.8052,2.8027,2.8021,2.8018,2.8008,2.8004,2.7999,2.7972,2.7984,2.7981,2.7978,2.7948,2.7943,2.7941,2.7933,2.7925,2.7924,2.7923,2.7923,2.7931,2.7931,0,0,0,0,0,0,2.806,2.8054,2.8028,2.8025,2.8033,2.8008,2.8003,2.7999,2.7972,2.7967,2.7978,2.7976,2.7944,2.7942,2.7939,2.7947,2.7924,2.7923,2.7923,2.793,2.7931,2.7931,0,0,0,0,0,0,2.8061,2.8058,2.8029,2.8039,2.8034,2.8008,2.8004,2.7999,2.7994,2.7968,2.7963,2.7978,2.7944,2.794,2.7937,2.7945,2.7923,2.7922,2.7929,2.793,2.7931,2.7965,0,0,0,0,0,0,2.8062,2.8059,2.8063,2.8039,2.8034,2.8029,2.8004,2.7999,2.7992,2.7989,2.7966,2.7962,2.7943,2.7939,2.7937,2.7944,2.7921,2.7928,2.793,2.7931,2.7963,2.7967,2.797,0,0,0,0,0,2.8064,2.8074,2.8063,2.8061,2.8039,2.803,2.8026,2.8005,2.7993,2.7997,2.798,2.7962,2.7945,2.7939,2.7936,2.7943,2.7928,2.7929,2.7931,2.7961,2.7966,2.797,0,0,0,0,0,0,2.81,2.8071,2.8058,2.8062,2.8048,2.8023,2.8027,2.8011,2.8001,2.7998,2.7971,2.7967,2.7966,2.7955,2.7948,2.795,2.7934,2.7935,2.7958,2.7962,2.7966,2.7968,2.7921,0,0,0,0,0,2.8108,2.8103,2.8078,2.8083,2.8077,2.8053,2.8049,2.8033,2.8018,2.8012,2.7995,2.7981,2.7972,2.7967,2.7957,2.7961,2.7954,2.7965,2.7968,2.7971,2.7972,2.7971,2.7975,2.7937,2.7937,2.7937,0,0,2.8125,2.8108,2.8107,2.809,2.8078,2.8073,2.8049,2.8045,2.8041,2.8012,2.8007,2.7994,2.7976,2.7976,2.7976,2.7967,2.7981,2.7973,2.7976,2.7975,2.7973,2.7977,2.798,2.7938,2.7937,2.7937,0,0,2.8153,2.8141,2.8143,2.8131,2.8113,2.8097,2.8098,2.8075,2.8065,2.806,2.8038,2.8032,2.8018,2.8005,2.7997,2.8019,2.8002,2.8017,2.8036,2.8035,2.8038,2.8041,2.8047,2.8049,2.8018,2.8018,2.8018,0,2.8176,2.8168,2.8146,2.8143,2.8135,2.8109,2.811,2.81,2.8079,2.8074,2.8064,2.8045,2.8031,2.8027,2.8032,2.8027,2.8025,2.8019,2.804,2.8042,2.8044,2.8049,2.8052,2.802,2.802,2.8019,2.8019,0,2.8197,2.8192,2.8196,2.8176,2.8169,2.8169,2.8145,2.814,2.8125,2.811,2.8105,2.8087,2.8072,2.8071,2.8056,2.8064,2.8058,2.8045,2.8027,2.805,2.8054,2.8056,2.8022,2.8022,2.8021,2.8021,0,0,2.8246,2.8214,2.8216,2.8206,2.8184,2.8179,2.8176,2.8162,2.8158,2.8145,2.8141,2.8129,2.8115,2.8106,2.809,2.8089,2.8105,2.8075,2.8074,2.808,2.811,2.812,2.8123,2.8094,2.8095,2.8095,2.8111,0,2.8269,2.8264,2.8243,2.8243,2.8237,2.8211,2.8208,2.8194,2.8179,2.8171,2.8154,2.8145,2.813,2.8123,2.8122,2.8104,2.8111,2.8103,2.8089,2.8088,2.8093,2.8125,2.8136,2.8152,2.8113,2.8113,2.8114,0,2.8295,2.8283,2.8283,2.8259,2.8256,2.8254,2.8239,2.8232,2.8214,2.8203,2.8193,2.8174,2.8168,2.8153,2.8144,2.8138,2.8131,2.8121,2.8121,2.8118,2.8102,2.8122,2.8157,2.8159,2.8116,2.8116,2.8116,0,2.8329,2.8313,2.831,2.8303,2.8276,2.8275,2.8264,2.8245,2.8238,2.8224,2.8219,2.8205,2.8197,2.8185,2.8163,2.8154,2.8155,2.8139,2.8145,2.8145,2.8145,2.8145,2.8179,2.8143,2.8143,2.8143,2.8143,0,2.8356,2.8357,2.8325,2.8323,2.8322,2.8298,2.8297,2.8283,2.8267,2.8261,2.8238,2.8232,2.8204,2.8195,2.8177,2.8171,2.8168,2.8158,2.8153,2.8159,2.816,2.8153,2.8151,2.8144,2.8144,2.8143,2.8143,0,2.8394,2.8373,2.8368,2.8343,2.8336,2.8336,2.8314,2.831,2.8294,2.8287,2.8283,2.8257,2.8245,2.8222,2.8204,2.8191,2.8188,2.8181,2.8194,2.8191,2.8198,2.8197,2.8227,2.8229,2.8194,2.8194,2.8194,0,2.8412,2.8411,2.8386,2.838,2.837,2.8362,2.8354,2.8329,2.8322,2.8301,2.8299,2.8286,2.8273,2.8254,2.8233,2.8218,2.8209,2.822,2.8206,2.8212,2.8207,2.8207,2.8206,2.8223,2.8224,2.8224,2.8224,0,2.8445,2.8435,2.8425,2.8411,2.8402,2.839,2.8376,2.8373,2.8345,2.8337,2.8325,2.8315,2.8296,2.8281,2.8263,2.825,2.8232,2.8229,2.8229,2.8235,2.8242,2.8237,2.8201,2.8228,2.8228,2.8228,2.8227,2.8227,2.8472,2.847,2.8451,2.844,2.8428,2.8415,2.841,2.8393,2.8383,2.8365,2.8352,2.834,2.832,2.8294,2.8281,2.8271,2.8262,2.8263,2.8263,2.8263,2.8265,2.8245,2.8267,2.8267,2.8267,2.8267,2.8267,0,2.8503,2.849,2.848,2.8462,2.8453,2.8438,2.8421,2.8414,2.8405,2.8388,2.8376,2.8361,2.8347,2.8324,2.8308,2.8303,2.8294,2.8299,2.8299,2.8296,2.8274,2.8275,2.8307,2.8307,2.8307,2.8307,2.8307,2.8307,2.8518,2.8513,2.85,2.8488,2.8474,2.8463,2.8455,2.8443,2.8429,2.8413,2.8402,2.8387,2.8368,2.8349,2.8335,2.8328,2.8323,2.833,2.8321,2.8301,2.8297,2.8294,2.8294,2.8329,2.8329,2.8343,2.8343,2.8343]}]]